This is the latest recevied weather packets stored in our database for station/object N4MGC. If no packets are shown the sender has not sent any weather packets the latest 10 day(s).
| Time | Temp. | Humidity | Pressure | Rain* | Wind** | Luminosity | Snow |
|---|---|---|---|---|---|---|---|
| 1777656211 | 17.78° C | 67% | 1015.8 hPa | 0 mm | - | 448 W/m² | - |
| 1777655907 | 17.78° C | 73% | 1015.8 hPa | 0 mm | - | 415 W/m² | - |
| 1777655604 | 17.78° C | 69% | 1015.9 hPa | 0 mm | - | 429 W/m² | - |
| 1777655300 | 17.22° C | 71% | 1016 hPa | 0 mm | - | 396 W/m² | - |
| 1777654997 | 17.78° C | 71% | 1016 hPa | 0 mm | - | 401 W/m² | - |
| 1777654695 | 16.67° C | 73% | 1016.1 hPa | 0 mm | - | 383 W/m² | - |
| 1777654393 | 16.67° C | 73% | 1016 hPa | 0 mm | - | 347 W/m² | - |
| 1777654090 | 16.11° C | 73% | 1016.1 hPa | 0 mm | - | 289 W/m² | - |
| 1777653788 | 16.11° C | 75% | 1016.1 hPa | 0 mm | - | 243 W/m² | - |
| 1777653483 | 16.67° C | 75% | 1016.1 hPa | 0 mm | - | 236 W/m² | - |
| 1777653180 | 16.11° C | 78% | 1015.9 hPa | 0 mm | - | 209 W/m² | - |
| 1777652876 | 16.11° C | 80% | 1016.3 hPa | 0 mm | - | 190 W/m² | - |
| 1777652573 | 15.56° C | 77% | 1016 hPa | 0 mm | - | 192 W/m² | - |
| 1777652270 | 15.56° C | 80% | 1015.8 hPa | 0 mm | - | 165 W/m² | - |
| 1777651968 | 15.56° C | 78% | 1016 hPa | 0 mm | - | 167 W/m² | - |
| 1777651663 | 15.56° C | 78% | 1015.9 hPa | 0 mm | - | 194 W/m² | - |
| 1777651361 | 15.56° C | 81% | 1015.6 hPa | 0 mm | - | 187 W/m² | - |
| 1777651058 | 15° C | 81% | 1016 hPa | 0 mm | - | 181 W/m² | - |
| 1777650755 | 15° C | 79% | 1015.6 hPa | 0 mm | - | 173 W/m² | - |
| 1777650452 | 15° C | 81% | 1015.6 hPa | 0 mm | - | 173 W/m² | - |
| 1777650149 | 15° C | 83% | 1015.9 hPa | 0 mm | - | 168 W/m² | - |
| 1777649847 | 15° C | 81% | 1015.8 hPa | 0 mm | - | 153 W/m² | - |
| 1777649544 | 14.44° C | 83% | 1016 hPa | 0 mm | - | 135 W/m² | - |
| 1777649240 | 14.44° C | 82% | 1015.9 hPa | 0 mm | - | 130 W/m² | - |
| 1777648937 | 14.44° C | 83% | 1015.8 hPa | 0 mm | - | 138 W/m² | - |
* Rain latest hour (hover to see other rain measurements)
** Current wind speed in m/s (hover to see current wind gust speed)